Location: Biberach+an+der+Riss
(48.0937°N, 9.7888°E)
Time: 11:06:28
(UTC+01:00)

N. Korean satellite - Visible Passes

Search period start: 23 January 2018 00:00
Search period end: 02 February 2018 00:00
Orbit: 458 x 515 km, 97.2° (Epoch: 22 January)

Date Brightness Start Highest point End Pass type
(mag) Time Alt. Az. Time Alt. Az. Time Alt. Az.
23 Jan 7.6 06:52:19 10° NNE 06:55:40 47° E 06:59:01 10° S visible
23 Jan 9.4 19:06:07 10° SW 19:08:45 19° W 19:11:24 10° NW visible
24 Jan 9.1 06:28:59 10° NE 06:31:53 25° E 06:34:47 10° SSE visible
24 Jan 8.3 18:41:39 10° SSW 18:44:57 35° W 18:48:14 10° NNW visible
25 Jan 9.9 06:06:12 10° ENE 06:08:02 14° E 06:09:51 10° ESE visible
25 Jan 6.8 18:17:41 10° S 18:21:14 70° W 18:24:44 10° NNW visible
26 Jan 6.4 07:14:40 10° NNE 07:18:09 87° WNW 07:21:38 10° SSW visible
26 Jan 6.5 17:54:05 10° SSE 17:57:33 58° ENE 18:01:01 10° N visible
26 Jan 10.2 19:30:29 10° WSW 19:31:26 11° W 19:32:22 10° WNW visible
27 Jan 7.7 06:51:05 10° NNE 06:54:26 46° E 06:57:48 10° S visible
27 Jan 9.4 19:04:54 10° SW 19:07:32 20° W 19:10:10 10° NW visible
28 Jan 9.1 06:27:45 10° NE 06:30:38 24° E 06:33:33 10° SSE visible
28 Jan 8.2 18:40:27 10° SSW 18:43:43 36° W 18:46:59 10° NNW visible
29 Jan 10.0 06:04:58 10° ENE 06:06:47 13° E 06:08:35 10° ESE visible
29 Jan 6.8 18:16:28 10° S 18:19:58 72° WSW 18:23:28 10° NNW visible
30 Jan 6.5 07:13:24 10° NNE 07:16:53 89° NW 07:20:24 10° SSW visible
30 Jan 6.5 17:52:52 10° SSE 17:56:18 56° ENE 17:59:44 10° N visible
30 Jan 10.2 19:29:11 10° WSW 19:30:10 11° W 19:31:10 10° WNW visible
31 Jan 7.8 06:49:48 10° NNE 06:53:10 45° E 06:56:33 10° S visible
31 Jan 9.4 19:03:38 10° SW 19:06:16 20° W 19:08:54 10° NW visible
01 Feb 9.2 06:26:29 10° NE 06:29:22 24° E 06:32:17 10° SSE visible
01 Feb 8.2 18:39:11 10° SSW 18:42:27 36° W 18:45:41 10° NNW visible
